weather.gov     
National Weather Service

Terminal Aerodrome Forecast
NWS Homepage
This page is being discontinued on March 12, 2014.
The same data is available at this site. Please update your bookmarks.
Thank you, and we apologize for the inconvenience.
Please send an email to SR-SRH.Webmaster@noaa.gov with any concerns.


Current Version
Previous Version:    01  02  03  04  05  06  07  08  09  10  11  12  13  14  15  16  17  18  19  20  21  22  23  24  25  26  
[Printable]
787
FTUS46 KLOX 011100
TAFSBA
TAF
KSBA 011125Z 0112/0212 VRB03KT P6SM SKC
     FM011400 VRB03KT 3SM BR BKN006
     FM011600 12005KT P6SM BKN010
     FM011800 14007KT P6SM SCT015
     FM012000 24008KT P6SM SKC
     FM020400 VRB03KT P6SM SKC
     FM021000 VRB03KT 5SM HZ OVC010=


U.S. Dept. of Commerce
NOAA National Weather Service
1325 East West Highway
Silver Spring, MD 20910
E-mail: w-nws.webmaster@noaa.gov
Page last modified: May 16, 2007
NATIONAL WEATHER SERVICE: for Safety, for Work, for Fun - FOR LIFE